RH
19 19 19 18 18 16 16 15 14 14 12 13 13 14 15 17 19 19 24 25 28 26 15 16 22 31 41 45 41 30 29 34 31 27 21 14 17 16 21 32 37 35 30 27 27 27 26 26 26 27 28 28 29 29 29 28 28 26 24 22 21 21 20 23 26 27 27 24 22 24 26 28 30 32 33 31 29 28 27 30 34 33 25 14 9 8 8 9 10 11 11 12 12 14 14 14 16
21 20 20 19 19 18 18 16 14 14 13 13 13 14 14 15 16 16 19 18 18 17 13 15 21 27 31 36 35 37 41 32 30 29 19 17 18 15 20 28 36 38 33 28 26 27 26 26 27 27 27 28 29 28 28 28 27 25 23 21 20 20 19 23 26 27 27 25 23 23 26 29 31 33 34 32 31 29 27 31 36 35 27 16 10 9 9 10 11 11 12 12 13 14 15 16 17
23 22 21 19 19 18 19 18 14 14 14 13 13 14 14 14 14 15 15 15 15 13 13 14 21 24 24 36 39 43 45 34 33 31 21 18 17 15 19 25 33 38 36 30 25 26 27 26 27 27 27 27 28 28 28 27 26 24 22 20 20 20 19 22 26 27 27 25 23 24 26 29 31 34 35 32 31 30 29 33 38 37 27 17 11 9 10 10 11 11 12 12 13 15 15 17 18
23 22 21 20 20 20 19 18 15 14 14 14 14 14 14 14 13 15 14 14 13 12 14 14 21 18 19 36 38 41 41 35 37 32 24 18 15 15 18 24 32 39 39 34 27 25 25 26 27 27 27 27 27 27 27 26 25 23 21 20 19 20 19 22 26 27 27 25 23 23 26 29 31 34 35 33 32 32 32 36 40 37 28 19 12 10 10 10 11 11 12 13 14 15 16 18 19
23 22 22 21 21 21 21 19 17 14 14 15 15 14 14 14 14 14 14 15 12 13 14 15 25 18 15 25 26 37 39 34 37 33 28 20 14 14 18 23 30 40 42 38 32 27 25 25 26 26 26 26 26 26 26 25 24 22 20 19 19 19 19 22 26 26 27 25 23 23 26 29 31 34 36 35 33 33 34 38 41 36 29 21 15 12 10 10 11 11 12 13 14 16 17 19 20
22 21 22 22 22 21 21 20 18 15 15 16 15 15 16 15 14 14 14 15 13 13 12 14 24 18 15 18 17 24 28 31 35 33 31 23 14 13 19 23 28 40 44 43 37 31 26 24 25 25 25 25 25 25 25 24 23 21 20 18 18 19 18 22 26 27 27 25 23 23 26 29 32 35 36 36 34 35 36 40 41 35 29 23 17 13 11 11 11 12 13 14 15 17 18 20 21
21 21 21 22 21 21 21 20 18 15 15 16 16 16 17 16 14 13 14 15 15 14 13 13 14 21 26 18 15 20 25 31 32 32 30 23 14 12 19 22 28 40 45 46 43 37 29 24 23 23 24 23 23 23 23 22 21 20 19 18 18 18 18 22 26 27 28 26 23 23 26 30 32 35 37 37 35 35 38 42 41 35 29 24 20 15 12 11 11 12 13 14 15 17 19 20 21
21 21 21 21 20 21 21 20 18 16 16 16 16 17 17 15 14 14 14 14 16 15 15 13 9 26 33 15 14 23 27 30 29 29 26 20 14 12 19 22 26 34 43 47 47 44 35 27 24 22 22 21 21 21 21 20 19 18 18 18 17 18 18 23 27 27 28 26 23 23 26 30 33 35 37 38 36 36 38 43 42 35 30 26 22 17 13 11 11 12 13 14 15 17 18 20 21
22 22 22 22 21 20 20 20 19 18 18 17 17 16 16 15 14 14 15 15 16 18 18 13 11 26 29 15 17 21 23 26 26 26 22 17 13 13 19 22 24 27 37 44 47 50 45 36 29 25 21 19 19 18 19 18 18 17 17 17 17 18 18 23 28 29 28 26 24 23 26 31 34 36 38 39 37 36 39 43 43 36 32 28 24 20 15 12 11 12 13 14 16 17 18 19 20
23 22 23 23 21 21 20 20 19 20 19 18 18 16 16 15 15 15 14 16 16 19 18 11 11 18 21 20 21 21 21 21 24 25 20 16 12 12 16 20 22 25 34 40 44 49 51 47 40 33 25 20 18 16 17 16 17 17 16 17 17 17 18 23 28 29 28 26 24 23 25 30 34 36 38 39 38 37 39 43 45 39 34 30 26 23 19 16 13 12 13 14 16 17 18 19 20
23 23 23 22 21 21 21 21 20 21 21 19 18 16 17 15 16 16 14 17 16 17 16 14 17 13 13 18 20 22 20 21 27 24 17 14 11 11 14 18 21 24 31 37 42 47 51 51 50 46 37 30 22 17 16 16 16 16 16 16 17 18 18 24 29 29 28 27 24 22 24 28 33 35 38 40 40 38 39 42 46 44 38 34 30 27 25 20 17 15 14 14 14 16 18 18 19
23 23 23 21 20 21 21 21 20 21 21 20 20 17 18 19 19 17 15 16 16 21 19 15 20 15 11 16 18 20 20 25 28 22 16 13 11 12 13 17 20 23 28 35 42 47 50 50 55 56 52 45 31 21 18 16 16 15 16 16 17 17 19 24 29 29 29 27 25 22 23 27 31 35 37 39 40 39 38 41 45 48 44 38 35 32 29 26 23 20 19 18 17 16 17 18 19
23 23 22 21 19 20 20 20 20 20 21 21 21 19 19 21 20 17 16 17 18 23 21 14 14 14 13 15 18 20 22 27 25 20 16 12 12 13 14 17 18 20 25 32 40 45 49 50 55 62 64 57 42 28 21 17 16 15 15 16 17 17 19 25 30 30 29 28 26 23 22 25 30 34 37 39 41 40 38 40 42 47 48 44 40 38 35 33 30 27 25 24 23 21 19 19 19
23 23 22 21 20 20 19 19 19 19 20 21 22 21 21 20 19 17 17 20 22 18 16 14 12 15 19 20 20 21 24 26 22 19 16 13 13 13 14 16 16 18 23 29 37 44 48 48 54 66 70 62 48 33 23 19 16 15 16 16 17 17 20 25 31 31 30 29 26 23 22 24 29 33 37 39 42 42 40 40 41 44 48 48 45 43 42 40 37 36 34 32 30 29 28 27 25
24 24 23 22 20 20 20 19 19 19 19 20 23 25 23 20 16 18 19 22 24 15 13 14 11 18 24 29 30 25 26 25 21 20 17 14 13 14 14 15 18 18 22 29 40 46 46 47 56 71 71 60 46 31 22 19 16 15 16 16 17 18 20 26 30 31 30 29 27 24 22 23 28 33 37 41 44 46 45 43 43 43 46 48 47 46 45 45 43 43 42 40 38 37 38 37 36
25 24 23 22 20 20 20 19 19 19 19 19 23 26 23 21 17 21 21 18 21 14 12 15 11 15 18 24 29 26 28 25 22 21 17 15 13 13 12 16 25 25 27 36 45 48 45 47 56 70 69 55 39 24 19 17 15 15 16 16 17 18 20 26 30 30 30 28 27 25 23 23 27 32 38 42 46 48 48 47 46 46 47 48 47 46 46 46 46 45 45 44 43 42 42 42 42
25 24 23 22 21 20 19 20 20 19 19 19 22 23 21 20 18 20 18 15 21 18 13 14 13 13 13 18 24 26 30 26 23 22 17 15 13 12 12 19 30 33 37 45 49 49 46 47 56 67 64 50 32 19 17 15 15 15 16 17 17 19 21 26 30 30 30 28 25 23 22 23 25 31 37 43 47 50 52 51 50 51 52 49 47 46 45 45 44 43 43 43 43 43 43 43 43
25 24 23 22 21 20 19 19 20 20 20 19 20 21 19 20 19 16 19 19 17 16 14 13 15 13 11 16 23 28 31 29 26 23 17 15 13 12 13 19 31 40 47 52 52 48 46 47 55 63 55 43 29 18 16 15 15 15 16 17 18 20 22 27 30 30 30 28 26 23 22 21 25 30 36 43 50 56 57 55 54 54 53 49 46 45 43 42 41 40 40 41 41 41 42 43 43
25 23 23 22 21 20 20 20 20 21 20 20 20 21 19 19 20 16 26 30 17 20 22 14 14 14 12 13 21 27 30 31 27 22 19 15 13 12 13 19 31 46 53 52 48 45 45 47 54 54 45 37 26 19 17 15 15 16 16 17 18 20 23 28 31 32 31 29 27 24 21 20 24 30 37 45 55 61 61 58 55 51 49 46 43 41 40 40 39 38 39 40 41 41 43 44 47
24 24 22 21 21 20 20 20 21 21 21 21 20 21 21 19 21 16 25 30 18 26 31 21 16 14 13 12 14 20 25 30 26 23 20 14 13 12 12 16 27 46 54 47 42 42 45 49 52 47 40 34 26 22 20 17 16 16 17 18 20 21 24 29 32 34 33 30 28 24 22 20 23 31 40 51 59 62 60 56 51 46 45 43 41 41 42 41 41 44 42 43 45 46 47 48 51
24 23 22 21 22 20 20 21 21 22 21 22 20 21 21 18 21 18 21 25 21 29 30 21 19 15 13 12 12 15 21 24 23 23 19 14 13 12 12 13 22 39 45 42 41 43 47 52 52 46 40 35 29 25 21 19 18 17 17 18 21 23 26 31 33 36 35 31 28 25 23 20 24 34 47 59 62 61 60 57 55 53 51 44 42 45 48 46 48 52 49 48 50 50 50 51 53
23 22 22 22 21 20 20 21 21 22 22 22 21 20 21 19 20 19 20 23 22 28 27 16 16 16 13 12 11 13 18 18 20 23 18 14 13 12 11 13 23 33 36 39 44 45 49 52 51 47 42 37 34 29 24 22 20 19 19 20 23 26 29 32 36 38 36 33 30 27 23 21 27 38 53 64 63 63 60 57 59 60 56 49 46 49 52 50 50 53 52 52 52 52 51 52 51
22 22 23 22 21 20 20 21 21 22 22 22 22 20 21 20 19 19 19 22 20 20 20 15 15 15 14 13 9 13 18 18 21 22 19 16 13 11 11 14 25 33 35 38 43 44 47 50 50 48 45 42 39 33 27 24 22 20 20 23 26 29 32 36 40 40 36 35 32 28 23 21 30 43 59 65 62 65 59 55 60 61 59 55 52 53 55 53 52 50 49 50 49 50 50 49 46
22 21 22 22 21 21 21 21 21 22 21 21 21 21 21 19 20 20 18 19 19 16 16 15 16 15 15 13 10 13 16 19 24 23 19 16 11 11 11 14 23 31 35 37 41 43 44 46 46 46 45 43 40 35 29 26 24 23 24 27 29 33 37 40 44 42 39 38 35 30 24 22 31 48 63 63 61 62 54 51 58 63 64 62 58 57 57 56 53 51 49 47 47 47 48 46 45
21 21 20 21 22 22 21 21 21 21 21 21 20 20 20 19 20 22 19 19 17 16 16 15 15 15 15 13 10 12 14 19 23 19 17 14 10 11 10 13 21 28 34 36 41 44 43 43 43 43 44 42 40 35 31 28 26 27 29 32 37 41 43 47 47 45 43 42 38 31 24 22 32 54 65 61 61 58 51 51 57 64 67 65 63 61 59 58 55 52 47 44 43 45 46 44 44
20 21 20 20 21 21 21 21 21 21 20 21 20 20 20 19 19 19 20 20 18 16 16 16 15 15 15 12 11 12 15 20 20 16 17 14 11 11 10 13 21 28 34 38 44 48 47 46 45 45 46 44 41 37 34 33 33 37 41 45 49 51 52 52 50 48 46 44 39 31 24 23 35 59 66 61 63 58 53 55 58 64 67 65 65 63 60 59 56 47 43 47 46 44 44 38 39
19 19 19 20 21 20 20 20 20 21 20 20 20 19 19 19 19 18 21 19 16 17 16 16 16 15 15 12 11 13 16 18 15 16 17 14 11 11 11 13 22 30 34 41 47 51 53 51 50 50 49 48 45 43 43 46 51 56 60 63 63 62 61 57 54 51 48 45 38 30 25 26 42 64 66 62 64 59 55 58 59 61 63 62 64 66 60 53 47 38 37 42 42 43 40 31 32
17 17 18 19 19 19 19 20 19 20 20 19 19 19 19 20 18 19 25 22 16 18 16 16 16 15 15 12 12 15 16 16 14 14 14 13 12 12 11 13 24 34 37 42 50 55 57 57 57 56 54 53 51 52 58 66 69 71 73 75 75 73 69 63 59 53 48 44 36 31 28 34 55 68 64 63 65 62 59 60 59 60 61 60 62 62 53 42 35 29 26 26 33 42 36 25 29
16 16 18 18 17 17 18 18 19 19 19 19 19 18 19 20 18 18 23 21 16 17 16 16 16 15 14 12 13 16 17 16 14 13 13 14 13 12 12 14 27 39 40 44 50 56 61 62 63 62 59 58 58 63 73 77 73 74 79 81 83 82 78 70 60 52 46 40 35 32 32 46 67 69 63 64 66 66 65 63 60 61 61 58 58 54 44 36 29 24 25 24 29 35 26 20 26
16 16 16 17 16 16 16 17 17 18 18 18 19 18 18 19 18 17 18 18 16 17 16 16 15 15 13 11 13 16 17 16 14 14 15 15 13 13 12 15 29 39 40 44 49 55 62 67 67 66 64 62 65 71 77 77 74 77 81 79 78 77 74 67 55 47 42 39 36 33 40 61 73 67 64 66 66 67 66 63 62 63 59 57 57 49 39 34 25 24 34 34 25 22 19 17 21
17 18 17 16 16 16 16 16 17 17 17 17 18 17 16 16 17 17 17 16 16 16 16 16 15 14 12 11 12 13 17 15 13 19 21 16 13 13 12 16 29 36 39 46 48 54 62 68 70 70 70 69 71 73 74 78 78 79 77 70 63 59 56 52 46 43 41 41 38 37 55 75 74 68 70 69 69 67 64 62 61 62 57 56 55 40 32 29 21 21 31 32 21 16 19 17 18
18 19 18 16 16 16 16 16 16 16 17 17 16 17 16 15 16 18 16 15 16 16 16 16 14 14 11 10 11 12 18 16 14 23 24 17 14 13 13 20 31 37 43 50 50 55 62 66 69 71 76 77 75 73 72 78 83 82 77 66 54 47 44 43 42 43 46 45 41 51 73 81 74 73 74 72 70 66 63 62 61 60 57 54 45 28 23 22 18 18 19 20 19 17 18 18 18
19 17 17 17 16 15 15 15 18 16 17 17 15 17 15 15 21 20 16 15 15 15 15 15 14 13 11 9 10 12 17 17 16 23 24 18 16 15 17 25 37 43 47 53 55 59 66 68 67 71 80 82 79 73 67 74 83 84 82 73 58 47 43 43 46 50 52 47 49 68 83 80 76 76 75 74 70 63 63 64 62 60 55 47 34 20 18 17 16 18 17 17 18 17 18 18 18
20 17 16 17 15 14 15 16 20 17 17 17 14 17 13 18 32 24 15 17 15 15 15 14 14 12 10 9 9 12 16 18 18 21 20 18 18 20 23 30 40 47 51 58 62 66 72 74 71 72 79 82 79 71 67 76 81 79 83 82 67 50 44 47 53 57 54 51 64 80 82 80 80 78 76 74 68 64 63 62 59 53 44 33 24 18 17 17 17 17 17 18 17 17 18 18 18
19 19 17 16 13 14 14 15 21 18 17 18 14 18 13 20 40 28 14 17 14 14 14 12 13 10 10 9 7 11 15 18 20 18 17 17 21 27 31 35 42 50 58 64 67 70 74 78 76 74 77 78 76 72 71 80 79 73 78 81 71 55 47 52 59 59 56 64 81 85 81 81 81 78 75 71 66 64 60 56 50 38 28 23 20 18 17 17 18 18 18 18 18 19 18 18 19
17 20 18 15 13 14 14 14 20 18 17 18 15 18 13 18 39 28 12 16 14 12 13 10 11 9 9 8 7 11 15 20 20 16 14 14 20 27 31 38 46 51 60 65 67 71 77 82 79 73 75 73 72 74 76 80 77 73 76 77 71 59 52 57 63 62 64 80 91 85 81 82 80 77 71 67 64 59 53 45 35 24 20 20 18 17 18 18 18 18 18 18 19 19 20 20 21
18 18 18 15 13 13 14 14 18 18 16 17 13 15 15 14 29 28 12 12 13 10 11 10 9 9 8 8 8 10 17 21 18 14 13 14 19 22 25 40 50 53 61 65 65 71 80 90 84 72 72 72 72 79 84 84 77 74 79 78 69 60 59 62 64 67 75 87 92 86 82 81 81 77 69 65 61 54 46 34 22 17 18 18 17 17 18 18 18 19 19 19 20 21 22 22 23
20 18 18 16 15 14 16 15 18 18 13 15 13 12 15 11 20 28 15 9 11 9 9 9 8 8 7 8 8 11 18 19 14 13 12 15 19 17 23 41 50 55 65 70 73 76 78 83 80 69 69 74 79 86 89 85 78 75 79 75 66 64 67 68 69 76 85 90 92 88 83 80 80 76 70 65 58 53 44 29 19 17 17 16 17 18 18 19 19 19 20 21 22 23 24 26 28
21 20 20 17 16 14 16 17 17 17 13 12 12 10 14 11 16 27 16 6 10 8 7 8 7 8 8 8 9 13 18 16 13 13 13 15 17 17 27 42 49 57 69 77 82 79 68 64 69 75 78 77 79 83 83 79 75 72 71 68 64 67 73 76 79 81 87 92 91 86 81 78 77 74 70 64 58 54 43 27 20 18 17 16 17 18 18 19 20 21 23 23 24 26 30 33 36
22 20 18 17 16 14 16 17 16 17 14 13 12 14 15 11 20 33 18 5 9 8 7 9 8 8 10 10 11 14 16 14 13 13 13 13 13 21 35 44 50 60 69 79 82 72 61 62 75 87 88 78 71 73 74 69 65 63 63 65 64 70 78 82 82 80 85 91 87 83 79 76 74 70 66 61 56 50 37 26 22 20 18 17 17 18 20 21 23 24 24 24 28 35 40 43 44
23 19 17 15 16 15 15 17 20 20 17 17 20 22 17 15 31 37 18 5 9 8 7 9 8 9 11 12 13 15 15 14 13 12 12 11 15 31 43 47 55 63 66 72 74 70 70 72 78 87 88 78 69 69 71 65 61 62 65 67 67 74 82 83 82 81 83 86 84 83 79 75 72 66 60 57 50 40 31 26 24 21 19 18 19 21 23 24 24 23 24 30 39 47 51 51 47
22 22 20 16 17 16 14 18 23 23 19 19 22 20 14 19 34 33 18 9 7 8 8 8 8 9 13 14 14 15 15 13 13 12 12 12 24 40 47 50 57 62 64 65 67 75 82 79 81 90 90 79 72 74 75 69 67 68 69 71 75 80 84 84 83 82 84 86 85 85 80 75 71 64 57 51 42 34 30 28 26 23 23 23 24 24 24 23 22 23 30 42 51 56 57 54 49
22 24 23 20 19 16 18 23 23 20 17 17 20 17 11 16 26 29 25 15 6 6 8 7 9 11 14 15 15 15 15 14 13 13 13 17 31 44 47 50 53 57 62 62 64 75 84 83 86 92 85 75 76 79 77 72 71 72 73 80 87 87 85 85 83 83 87 87 82 81 77 73 69 61 53 44 36 32 31 30 28 27 27 26 25 23 22 21 22 29 40 51 57 59 58 54 48
22 24 23 22 20 16 21 25 21 15 14 18 23 20 12 12 22 33 32 18 7 6 8 7 8 11 15 16 15 16 15 14 13 12 14 22 36 43 43 45 48 55 61 61 65 76 86 89 91 91 83 77 80 80 76 74 75 78 81 85 88 88 86 86 84 85 87 82 76 75 73 71 66 57 46 37 32 32 31 31 30 28 27 25 23 23 22 23 28 39 48 53 56 58 57 53 47
22 25 24 21 20 19 21 22 18 14 15 24 30 25 15 11 19 35 39 25 10 5 6 8 8 9 15 15 15 17 15 13 12 11 14 24 36 37 35 39 46 54 57 58 67 78 85 89 92 94 90 85 84 80 77 78 80 82 82 82 83 84 85 83 84 86 83 77 72 72 71 69 64 53 41 33 32 31 30 30 29 27 25 23 23 23 24 30 38 44 46 48 53 57 55 49 42
22 25 24 21 22 23 24 23 18 16 21 29 31 25 19 13 16 35 50 37 16 10 8 7 8 9 12 15 15 16 15 13 12 11 13 20 28 29 31 39 46 51 53 57 68 78 82 84 88 91 93 94 87 76 76 80 82 80 77 78 81 83 81 78 81 84 79 74 71 70 69 68 62 49 37 32 32 31 30 29 27 24 22 22 23 25 32 40 42 40 41 46 52 53 49 43 38
23 25 23 21 23 23 24 24 20 21 29 29 22 21 22 16 13 31 50 37 20 26 20 6 7 9 9 14 15 15 16 14 13 12 12 14 18 22 28 36 42 46 49 56 67 74 78 80 81 85 90 93 84 73 74 82 83 78 74 77 81 83 80 77 79 79 75 73 71 69 65 63 57 45 35 32 32 30 29 27 24 22 21 22 25 33 41 42 37 37 42 47 48 45 41 38 37
23 25 22 21 22 22 23 23 24 26 29 25 17 20 26 20 11 19 39 36 23 27 20 3 6 9 8 12 13 15 15 14 14 13 12 13 13 15 19 24 31 37 42 53 61 66 74 77 77 82 88 88 79 71 75 84 83 78 75 76 78 79 78 78 79 76 72 71 70 69 64 57 51 42 34 31 30 29 26 24 21 20 21 25 33 42 42 37 35 39 44 44 42 39 37 37 39
23 22 20 22 21 24 25 22 24 24 21 21 16 17 24 25 16 12 31 46 30 16 11 5 5 6 7 10 11 13 14 13 15 14 13 13 13 13 14 15 19 25 33 48 57 60 69 75 75 79 85 83 75 69 75 83 80 77 78 78 78 78 76 78 77 72 70 70 69 68 64 56 49 41 33 29 28 26 23 21 20 21 26 35 43 44 37 34 37 40 40 39 38 36 37 40 39
22 19 19 22 20 28 31 23 23 21 18 22 18 19 26 29 24 14 27 52 38 11 7 9 11 10 8 10 11 12 12 13 14 14 14 13 12 12 13 13 15 18 27 45 54 56 65 74 74 76 80 77 70 68 75 80 77 75 78 80 80 79 78 76 72 68 68 68 67 66 63 57 51 43 34 27 26 24 22 21 23 29 37 43 44 39 34 34 36 37 37 36 36 37 40 39 34
21 17 17 20 19 26 28 22 22 18 17 22 22 26 28 26 27 22 28 47 39 17 12 15 21 21 12 11 13 13 13 13 14 15 14 13 13 12 12 13 15 17 26 44 53 53 63 76 75 74 75 71 68 70 73 73 74 74 77 81 81 80 78 73 68 67 67 64 64 63 58 54 49 42 33 26 24 23 24 28 34 40 43 42 38 34 33 33 34 35 36 36 38 40 40 35 27
20 17 16 18 18 21 22 23 24 19 18 24 27 28 24 25 34 34 33 41 35 23 18 15 17 16 11 12 14 13 14 14 14 14 13 13 13 12 12 13 15 19 28 44 51 51 61 75 77 75 75 73 72 71 66 64 69 74 77 81 80 78 76 71 68 69 65 60 59 58 55 51 44 37 30 25 25 28 33 38 40 41 39 36 34 32 32 33 34 35 35 38 40 40 36 29 21
19 19 16 16 17 18 22 26 26 23 24 28 30 28 24 27 34 33 30 33 34 29 18 10 10 11 11 13 12 12 14 13 13 13 13 13 12 12 12 12 16 21 32 45 48 50 62 75 78 77 77 79 77 68 60 60 67 73 75 76 77 75 74 72 70 67 62 60 61 61 58 51 44 38 33 31 35 38 41 40 37 35 33 32 31 30 32 34 35 35 37 40 42 39 33 25 17
19 18 17 17 17 17 20 23 23 24 25 26 26 26 24 22 26 32 31 27 30 31 20 11 10 10 11 11 11 12 12 12 13 13 12 12 11 12 11 11 16 24 36 50 53 56 66 75 80 81 80 81 77 68 62 61 65 70 69 70 72 71 71 70 66 63 65 68 69 65 60 54 49 45 42 42 43 42 39 34 32 31 30 30 30 31 33 34 35 36 39 42 41 36 28 20 14
21 19 19 20 20 20 21 22 24 25 25 22 22 23 22 17 20 33 36 29 27 27 21 16 11 9 9 10 10 11 11 11 12 11 11 11 10 11 11 11 17 25 37 54 61 60 63 73 82 83 82 80 74 67 65 64 65 67 66 67 69 68 69 66 62 65 72 73 69 65 61 57 54 50 47 46 43 39 35 31 29 28 28 29 31 33 34 34 36 39 41 42 40 33 24 15 10
25 21 19 20 21 21 20 21 22 23 23 21 21 20 19 17 20 27 30 31 30 27 23 19 12 8 8 9 9 10 9 10 10 9 9 9 8 10 10 10 16 25 35 52 62 57 58 72 81 81 82 80 71 65 64 66 67 67 66 67 67 66 65 61 63 71 75 71 68 65 61 56 53 50 47 44 41 37 34 31 30 28 28 30 33 34 35 35 38 42 43 42 38 28 18 10 6
26 22 19 20 21 19 18 19 19 19 20 19 21 21 18 18 21 23 24 26 28 28 26 18 9 7 8 8 8 9 8 9 9 9 8 8 8 9 10 11 17 27 35 49 59 58 60 71 77 80 83 79 70 66 64 65 68 67 66 67 66 63 59 60 69 75 73 70 67 64 59 56 53 50 48 44 42 39 36 34 32 30 31 33 35 35 35 37 41 43 43 40 33 22 12 7 4
23 21 20 20 21 20 19 19 18 18 18 18 20 20 17 20 24 24 22 22 22 24 26 21 12 9 9 8 8 8 10 11 11 10 9 8 9 9 10 12 17 25 31 43 58 64 64 68 75 81 82 76 70 68 66 65 67 67 65 66 65 59 57 66 75 74 70 69 68 65 62 60 57 54 50 47 45 43 40 37 35 34 34 35 36 36 36 39 42 44 44 37 27 16 8 5 4
Wind_Speed
16 16 14 13 9 4 6 3 3 4 6 6 5 5 7 7 6 6 5 3 3 3 2 1 3 3 1 2 0 2 4 3 4 6 6 8 9 8 5 1 2 6 11 14 15 14 12 10 9 8 7 6 4 2 1 1 3 5 6 6 7 8 9 9 11 12 11 11 10 9 9 10 10 10 10 10 9 9 9 10 10 10 9 8 7 7 8 9 10 12 13 13 13 13 12 12 13
19 19 18 18 14 8 4 4 4 7 9 8 6 5 7 6 6 6 6 5 4 3 2 2 1 3 3 2 1 3 4 4 3 4 5 7 9 9 6 1 1 4 9 13 16 16 14 12 10 10 8 7 6 4 3 2 3 4 5 5 5 7 7 8 9 10 10 10 9 9 9 9 10 10 10 9 9 9 9 10 10 9 8 8 7 7 8 9 11 12 13 13 13 13 12 12 12
19 21 21 21 19 16 9 6 7 9 13 9 7 5 6 5 6 6 5 5 4 3 2 2 1 2 2 2 2 2 4 5 5 4 5 7 10 9 6 3 1 3 8 12 15 17 16 14 12 11 9 8 7 5 4 3 3 4 5 5 4 6 6 7 8 9 9 9 9 8 8 9 10 10 10 9 9 9 9 9 10 9 8 7 7 7 8 9 11 12 13 13 12 12 12 12 12
16 17 20 23 22 17 11 8 7 9 14 10 8 7 6 5 6 6 5 4 3 4 3 3 1 2 2 3 3 3 5 6 6 4 4 7 11 10 7 4 2 2 6 11 14 17 17 16 15 13 11 9 8 7 6 4 5 5 5 4 4 5 5 5 7 8 8 8 8 8 8 8 9 9 9 9 8 9 9 9 10 9 7 7 7 7 8 9 10 11 12 12 12 11 11 11 10
14 13 16 22 20 13 10 9 7 8 11 8 8 8 6 4 6 6 5 3 3 4 4 4 2 3 4 4 4 4 6 6 6 4 3 6 11 11 7 5 3 1 5 9 12 15 18 18 17 15 12 11 9 8 7 6 6 6 6 5 3 4 4 4 5 7 7 8 8 7 7 7 8 9 9 8 8 9 9 10 10 9 7 7 7 7 8 8 9 10 11 11 10 10 10 10 9
14 13 13 17 16 13 11 11 13 12 6 4 7 7 5 3 4 5 5 3 2 3 4 5 2 2 3 3 4 5 6 6 5 4 3 6 10 10 7 5 3 2 4 6 11 14 16 18 17 16 14 12 11 10 9 7 7 7 7 5 3 3 3 3 4 6 6 7 7 6 6 7 8 8 8 8 8 8 9 9 10 8 7 6 6 7 7 8 8 9 9 10 9 9 8 8 7
14 11 10 12 13 15 13 14 18 15 7 6 7 6 4 3 2 3 5 3 3 4 4 6 4 3 3 3 3 4 5 4 3 3 4 6 9 9 7 5 3 2 3 6 10 12 15 17 17 17 16 14 13 12 10 8 7 8 7 6 3 2 2 2 3 5 6 6 6 6 5 6 7 7 7 7 7 7 8 9 9 8 7 6 6 6 7 7 7 8 8 8 8 7 7 6 5
14 12 10 12 11 13 16 17 17 15 9 8 5 3 3 2 2 2 4 3 4 6 6 6 5 3 2 3 3 4 5 4 1 2 4 5 7 8 6 4 2 1 3 6 9 11 13 15 16 17 17 16 15 14 11 9 8 9 8 7 4 2 1 1 3 4 5 6 5 5 5 6 6 7 7 6 6 7 7 8 8 7 7 6 6 6 6 7 7 6 6 6 6 6 5 4 3
15 15 12 14 14 13 17 19 19 14 10 8 5 3 3 2 1 2 4 4 5 6 6 5 4 2 1 1 3 5 5 3 1 2 4 3 5 6 6 4 2 0 2 6 8 9 12 14 15 16 17 17 17 15 12 10 9 9 10 8 5 3 1 1 2 4 4 5 5 5 5 5 6 6 7 6 6 6 6 7 7 7 6 6 5 5 5 6 6 5 5 5 4 4 3 2 1
14 15 13 14 16 16 17 19 20 16 13 11 7 5 3 1 2 2 3 5 5 5 6 4 3 0 1 2 5 7 6 3 1 3 2 2 4 6 6 5 3 2 3 5 7 8 10 12 13 15 17 18 18 15 13 11 10 11 11 8 5 3 2 1 2 3 4 4 5 5 5 5 6 6 6 6 6 6 6 6 7 6 6 5 5 5 4 4 4 4 4 3 3 2 2 1 1
12 14 15 16 18 20 20 19 20 16 15 14 9 7 4 1 3 4 4 6 5 6 6 4 4 1 1 2 5 6 6 3 2 3 1 1 5 7 7 5 3 2 4 6 7 8 10 11 13 15 17 18 17 15 13 12 11 12 11 8 5 4 3 1 1 2 3 4 5 5 5 5 5 6 6 6 6 6 6 6 6 6 5 5 4 4 4 4 3 3 3 2 2 1 1 0 1
14 13 16 19 19 21 22 21 21 18 15 13 10 8 5 5 5 5 5 6 6 6 6 4 4 2 3 3 4 5 5 2 2 2 2 4 7 8 7 5 3 2 4 6 8 9 11 12 13 15 17 17 17 16 14 12 13 13 10 8 6 5 3 2 2 2 2 3 5 5 5 5 5 5 6 6 5 6 6 6 6 6 5 4 4 4 4 4 4 3 3 3 2 2 2 2 3
18 14 15 20 20 19 20 20 20 18 14 11 11 10 6 6 7 7 7 6 5 5 5 5 4 3 5 5 4 5 5 4 4 3 3 5 8 8 7 5 3 2 4 6 8 10 12 14 15 17 17 17 17 16 14 14 14 12 10 8 6 6 4 3 2 2 2 3 5 5 5 5 5 5 6 6 5 5 6 6 6 6 6 5 4 4 4 4 4 4 4 4 5 5 5 5 5
21 16 16 19 20 19 19 19 18 18 16 13 12 12 6 5 9 11 7 5 6 5 5 5 4 3 5 4 4 7 7 5 5 4 3 5 8 8 8 6 5 4 5 8 10 11 13 16 17 17 17 17 17 15 15 16 15 12 9 8 7 6 5 4 3 3 3 3 5 5 6 6 5 5 6 6 6 6 5 5 5 5 6 5 5 4 4 4 4 5 5 5 5 6 6 6 6
23 18 18 20 21 21 21 19 17 17 15 14 14 10 8 8 10 11 7 4 7 8 6 5 4 4 2 2 5 7 6 5 5 4 2 4 7 9 9 9 8 7 8 11 12 12 14 16 17 18 18 17 16 15 16 16 14 11 10 9 8 7 6 5 4 4 3 3 4 5 6 6 6 5 6 6 7 6 6 6 5 5 5 5 5 4 4 4 4 4 4 5 5 6 6 6 7
26 22 20 22 24 22 22 21 18 17 14 14 15 12 12 15 12 10 10 9 9 10 8 7 5 3 3 5 6 6 5 4 5 3 0 4 7 9 10 10 9 9 10 11 11 11 13 16 17 18 18 18 17 16 16 16 13 11 10 10 9 7 7 6 5 5 4 4 4 5 6 7 6 5 6 7 7 7 7 6 5 5 5 5 5 4 4 4 4 4 4 5 6 6 7 7 8
29 26 24 25 26 25 22 21 20 16 15 16 16 16 14 15 16 13 13 13 11 11 10 9 7 5 6 6 6 7 6 5 4 4 0 4 7 9 10 9 7 7 10 10 9 10 12 15 16 17 18 18 17 17 17 15 12 11 11 10 9 8 7 7 6 6 5 5 5 5 6 7 6 5 6 7 8 7 7 6 5 5 5 5 6 5 5 5 4 4 5 5 6 6 7 8 8
31 28 28 29 28 27 23 20 20 16 16 18 17 17 13 12 18 17 15 15 14 13 12 10 7 6 7 6 6 9 7 5 5 4 1 5 7 8 8 7 5 3 7 8 8 8 10 13 15 16 18 18 18 17 16 14 12 12 11 11 10 8 8 8 8 7 6 6 6 6 6 6 6 6 6 7 8 8 7 6 5 5 5 5 5 5 5 5 5 4 4 4 5 5 6 7 8
35 30 30 32 29 26 23 20 20 18 17 18 18 20 16 12 17 19 15 16 18 13 13 12 8 7 7 7 7 8 7 6 6 4 1 5 6 6 6 4 2 2 6 7 7 8 11 14 15 17 18 18 17 17 15 14 13 12 12 11 10 9 9 9 9 8 7 7 7 6 6 6 6 5 5 7 7 7 6 6 5 5 4 4 4 4 4 4 4 4 4 4 4 5 6 7 8
38 34 33 33 29 25 23 22 20 18 18 18 19 23 21 17 18 19 15 17 20 13 11 11 10 9 8 8 9 9 8 7 6 4 2 5 5 5 6 5 2 5 8 8 8 9 12 14 15 18 18 17 17 17 15 14 13 13 12 12 11 10 10 10 9 8 7 7 7 7 7 7 6 5 5 6 7 6 5 5 4 3 2 2 3 3 3 3 3 4 4 4 4 5 6 7 8
40 37 37 31 27 27 25 23 21 20 21 18 18 22 23 22 22 19 16 17 19 15 14 12 11 11 9 9 9 10 11 9 7 5 4 5 6 6 6 7 4 6 9 9 8 10 12 13 15 16 16 16 16 16 15 14 13 13 13 12 11 10 10 10 9 8 8 8 8 8 8 7 6 5 5 6 6 4 4 3 2 1 1 1 2 2 2 3 3 3 4 4 4 5 5 6 7
39 37 40 33 27 29 26 23 23 23 24 21 20 22 22 23 24 22 19 17 15 14 16 16 13 12 11 10 10 11 13 11 9 6 6 7 7 6 6 7 5 6 8 9 9 10 11 12 14 14 14 15 15 16 15 14 14 14 13 12 11 11 11 11 10 9 9 10 9 9 8 7 6 5 5 5 5 4 3 2 1 0 0 0 1 1 1 2 2 3 4 4 5 5 5 6 7
41 36 41 39 31 29 27 24 26 26 26 25 24 24 24 25 23 23 23 19 17 17 18 18 16 15 12 11 11 11 12 12 10 8 8 9 8 6 6 7 6 7 9 10 10 10 11 12 13 13 14 14 15 15 15 14 14 14 14 13 12 12 12 12 10 10 11 11 10 10 9 8 6 5 5 5 4 3 1 1 1 1 1 1 1 1 2 2 2 3 4 5 6 6 7 7 7
48 39 38 40 35 33 31 26 26 30 28 25 25 26 28 27 22 25 26 23 23 22 20 18 17 17 14 11 11 12 13 13 12 11 12 12 8 6 6 8 8 9 10 11 11 10 10 12 12 12 13 13 14 14 15 15 15 14 14 13 13 13 13 12 11 11 12 12 11 10 9 8 6 6 5 5 4 2 1 2 2 2 1 1 2 2 2 2 3 4 5 6 7 7 7 7 7
52 46 35 32 36 39 35 28 28 32 30 25 26 28 28 27 24 27 28 27 28 24 21 20 19 18 16 13 12 14 15 14 14 15 16 13 8 7 7 9 9 10 12 12 12 11 10 11 11 11 12 13 13 14 14 14 14 13 13 13 13 13 13 12 11 12 13 12 12 11 9 8 6 6 5 4 3 2 2 2 2 2 2 2 2 2 2 3 4 5 5 5 6 6 6 6 6
49 51 39 29 35 43 37 32 33 33 32 30 31 30 27 28 30 30 30 31 30 25 23 22 20 19 17 13 13 15 15 15 15 16 17 13 8 8 8 10 10 11 13 14 13 12 11 11 11 11 12 13 14 14 14 13 13 12 13 13 13 13 13 13 13 13 13 13 12 11 10 8 7 6 5 4 3 2 3 3 3 2 2 2 2 3 3 4 5 6 5 4 4 4 5 5 5
42 47 42 31 34 43 40 36 37 36 36 36 34 31 28 31 34 32 31 33 29 24 24 22 21 20 17 14 15 17 16 16 17 17 18 14 10 9 10 10 11 12 14 14 14 13 12 12 12 12 13 14 14 13 13 12 12 13 13 13 13 13 13 14 14 14 14 13 12 11 10 8 7 6 5 4 3 3 4 4 4 3 3 3 3 3 4 5 5 5 5 4 4 3 4 4 5
40 42 37 33 36 41 42 39 37 36 38 39 34 29 27 32 39 33 29 33 29 24 25 23 22 21 18 16 17 18 18 18 19 19 18 15 11 11 10 12 12 12 13 15 15 14 13 13 13 14 14 14 14 12 12 12 12 12 13 13 13 14 14 15 15 15 14 13 13 11 10 8 7 6 6 5 4 4 5 5 4 4 4 4 4 4 5 5 5 4 4 4 4 3 3 4 4
43 42 34 33 39 41 43 41 38 38 39 38 34 28 28 35 44 37 31 34 31 26 27 24 23 22 19 18 18 20 20 20 20 19 18 16 13 12 12 14 13 13 14 16 16 15 13 14 14 15 16 15 13 12 12 12 12 11 12 13 14 15 15 16 15 14 14 13 12 11 9 8 7 7 6 5 5 6 7 7 6 5 5 5 4 4 5 4 3 3 3 2 2 2 2 3 3
42 41 34 28 32 37 42 42 40 39 38 37 34 31 33 36 41 39 37 37 31 28 27 24 24 23 21 19 20 21 22 22 21 20 20 18 14 14 15 16 15 16 17 16 16 15 14 15 16 16 17 15 13 12 13 12 11 12 13 14 14 15 15 15 15 14 14 13 12 11 9 8 8 7 6 6 6 7 8 8 7 5 5 5 4 4 4 3 3 3 2 1 1 2 2 3 3
37 31 32 29 29 35 40 42 41 39 38 39 36 35 38 32 31 36 38 36 31 29 28 25 24 23 22 21 22 24 24 23 21 22 22 18 15 15 16 17 17 18 18 17 16 15 15 17 17 17 17 15 13 12 12 12 12 13 15 15 14 15 15 14 14 14 13 13 12 10 9 8 8 7 6 7 7 8 8 8 7 6 5 5 5 4 3 3 3 2 1 0 1 2 3 4 5
32 27 29 32 34 34 33 39 46 43 38 40 37 36 38 30 28 32 30 30 29 28 27 26 25 24 24 23 24 27 25 23 23 24 23 19 16 17 18 18 19 20 18 18 17 16 17 18 18 18 17 16 14 12 13 14 14 13 14 15 15 15 14 14 14 14 13 13 12 10 9 9 8 7 7 8 8 8 8 8 7 6 6 6 5 4 4 3 3 3 2 0 1 3 4 5 7
30 32 32 34 38 35 29 34 43 44 38 40 40 38 34 26 29 32 31 32 30 29 29 27 26 25 26 26 27 28 26 25 25 26 24 20 19 19 19 20 20 20 19 19 19 18 18 19 19 19 18 17 14 13 13 14 14 13 14 14 15 15 15 15 14 14 14 13 11 10 10 9 7 7 8 9 10 9 8 8 7 7 7 7 6 5 4 4 3 2 1 1 2 4 6 7 8
31 36 36 35 38 36 31 29 34 38 37 39 42 41 33 23 25 32 34 36 33 31 31 29 27 27 28 28 29 29 27 26 27 27 24 22 22 21 21 21 21 20 20 21 21 21 20 20 21 20 19 17 14 13 13 14 15 14 14 14 15 16 16 15 14 14 14 12 11 11 10 9 8 9 10 10 10 9 8 8 7 7 7 7 6 6 5 4 3 2 2 3 4 6 8 9 10
37 38 38 36 34 36 33 26 28 34 35 35 36 38 37 26 22 30 35 34 33 32 30 29 29 29 29 29 29 30 28 27 28 27 25 24 24 23 22 21 20 20 21 22 23 23 23 22 21 20 19 16 14 15 15 16 15 14 15 15 16 16 16 15 15 15 14 12 11 11 10 9 10 11 11 11 10 9 8 8 7 7 7 7 7 6 4 4 3 3 3 4 6 7 9 11 12
36 36 35 33 30 30 30 25 24 31 33 33 34 35 37 30 25 34 40 35 35 34 32 32 30 30 31 29 30 31 29 28 29 28 26 25 25 24 24 23 21 21 22 24 25 25 24 23 22 20 19 17 18 18 16 16 15 14 15 15 15 16 16 16 16 16 15 13 11 11 12 11 11 11 11 10 9 8 7 7 7 8 8 7 6 5 5 4 3 4 5 5 7 8 10 11 12
27 31 30 31 30 26 26 24 20 27 31 31 35 34 34 33 29 35 41 36 35 36 35 35 32 32 32 30 30 31 30 30 29 28 26 25 26 25 25 24 22 22 24 25 27 26 23 23 23 21 19 18 19 17 14 15 15 14 14 14 15 16 17 18 18 17 16 14 12 12 13 12 11 11 11 10 9 8 8 7 8 8 8 7 6 6 5 5 5 5 6 7 8 9 10 12 13
22 27 26 28 29 23 22 21 19 25 28 28 31 32 32 32 30 33 39 37 36 37 35 35 33 33 33 30 30 31 32 31 29 27 26 25 26 27 27 26 23 24 25 26 27 26 24 24 24 22 20 19 19 17 15 15 15 15 15 15 16 17 19 19 19 17 15 15 13 12 12 12 11 11 10 10 9 8 8 8 8 9 8 7 7 6 6 6 6 6 7 8 9 10 11 13 14
21 24 23 24 26 22 19 19 20 24 27 26 26 29 31 30 28 31 38 38 36 36 35 35 33 31 31 30 30 33 33 31 29 27 26 26 26 28 29 26 24 26 27 26 27 27 26 27 27 23 20 20 19 17 15 15 16 16 17 16 17 19 20 19 19 18 16 15 13 12 12 11 11 11 11 10 9 8 8 9 8 8 7 7 7 6 6 7 7 7 8 9 10 11 13 14 15
22 23 23 23 24 24 20 20 21 22 24 24 22 24 26 25 25 30 36 36 35 36 35 36 33 30 30 30 32 35 34 30 28 28 26 26 27 30 30 26 25 27 27 28 28 27 27 29 28 23 19 18 18 17 14 14 16 18 19 19 19 20 19 19 18 17 15 13 11 12 12 11 11 11 11 11 9 9 9 9 8 7 7 7 7 7 7 7 7 8 9 10 12 13 14 15 15
22 22 23 22 23 25 21 20 21 20 21 24 20 19 24 25 26 31 36 36 37 37 37 36 34 31 31 33 36 35 33 29 28 28 27 27 29 31 29 26 25 26 27 29 27 24 26 28 27 24 19 16 16 17 17 16 17 19 19 19 18 19 18 18 17 15 13 12 12 13 12 12 11 11 11 10 10 10 9 8 8 8 8 8 8 7 7 7 8 9 10 12 13 15 15 16 15
22 21 22 19 20 24 20 19 21 19 21 27 24 17 21 28 30 32 35 37 39 38 38 38 34 33 33 34 36 35 31 29 28 28 27 28 31 32 29 26 24 25 27 27 24 22 25 26 27 25 20 16 14 15 18 18 19 20 19 18 18 17 17 15 12 12 14 14 14 14 12 12 11 11 11 10 9 9 9 9 8 8 8 8 7 7 8 9 10 11 12 13 14 15 15 15 15
22 20 21 17 15 20 20 20 21 19 20 25 28 22 19 24 30 32 34 38 41 40 39 39 35 34 35 34 36 35 30 29 29 29 28 29 32 32 28 26 23 23 25 24 21 23 25 25 26 22 15 14 15 15 17 17 17 17 17 18 18 15 14 12 8 9 13 14 13 13 12 12 12 11 11 10 10 10 9 9 8 8 8 7 8 8 9 10 11 12 13 14 14 14 15 15 15
20 17 22 21 17 18 19 20 19 20 19 18 26 29 23 23 26 28 34 39 41 42 41 39 38 36 35 35 36 34 31 30 30 29 28 29 31 31 28 25 23 22 23 21 19 22 24 23 24 19 13 13 14 15 16 16 14 14 15 17 16 14 14 12 9 10 12 12 11 11 12 13 12 12 11 10 10 10 10 9 9 8 8 8 8 9 10 12 12 13 13 13 13 13 14 14 14
17 13 18 21 19 18 19 20 19 19 18 17 24 28 22 23 24 23 31 40 42 44 44 40 39 38 36 37 37 35 32 31 31 29 28 28 29 30 28 26 25 23 22 19 17 21 23 21 21 20 16 14 13 14 16 14 13 13 15 15 14 13 13 12 11 11 12 12 11 12 13 13 13 12 11 10 11 10 10 10 9 9 8 9 9 10 12 13 13 13 13 12 12 12 12 12 12
17 15 17 17 17 17 18 18 20 20 16 19 26 29 21 19 23 23 26 37 44 44 43 40 38 37 38 39 38 37 33 31 31 30 28 27 29 30 30 28 26 23 22 19 17 20 21 21 21 20 17 14 12 13 13 13 13 14 14 13 13 13 13 13 12 12 13 13 12 12 13 14 14 12 11 10 11 11 10 10 10 9 9 10 11 12 13 13 13 12 12 11 11 11 11 11 11
18 17 19 17 15 15 16 16 19 16 14 23 28 30 24 16 21 29 30 36 40 37 38 40 39 38 39 40 40 38 36 33 31 30 29 28 29 30 30 29 26 23 22 20 18 20 21 21 20 20 19 15 13 12 12 13 14 14 14 14 14 13 13 14 14 14 14 13 12 12 13 14 14 13 12 11 11 11 11 11 11 11 11 11 12 13 14 13 12 11 10 10 9 9 9 10 10
21 21 20 18 17 15 14 15 15 11 12 24 28 27 26 20 21 28 29 33 35 33 38 41 39 39 39 41 41 40 38 35 32 31 30 29 29 30 29 28 26 25 23 21 21 22 22 21 20 20 19 16 14 13 13 14 15 15 16 15 15 14 14 16 17 16 15 13 12 13 14 15 15 14 13 12 11 12 12 12 12 12 12 13 13 14 14 12 11 9 9 8 8 8 9 9 10
25 25 24 19 15 13 13 12 13 13 10 14 23 26 24 25 28 25 21 25 32 36 37 37 37 38 38 40 42 42 39 36 34 33 32 30 29 28 27 26 25 26 24 22 23 24 23 21 19 20 19 17 15 14 14 15 15 16 17 16 15 15 16 18 18 16 14 13 13 14 15 15 15 15 15 14 13 12 13 13 13 13 13 13 13 14 13 11 9 8 8 8 8 8 9 10 11
31 32 31 22 13 10 11 10 10 13 10 6 15 22 20 23 27 25 20 19 24 34 36 32 31 33 36 38 40 41 39 36 35 36 34 31 28 27 26 26 25 26 25 24 25 25 24 22 20 20 19 17 15 15 16 16 16 17 18 16 16 17 18 19 18 16 14 14 14 14 15 15 15 16 16 15 14 13 14 13 13 13 13 13 14 13 11 9 8 8 8 8 8 8 9 10 11
32 33 32 26 17 12 10 10 9 12 11 10 14 15 15 17 19 22 24 19 18 26 30 28 27 30 35 38 38 38 37 36 35 36 35 31 28 28 28 27 26 27 26 25 26 26 25 23 21 21 19 17 17 17 18 17 17 18 18 17 19 20 20 20 18 15 14 14 14 14 15 15 16 16 16 16 15 15 14 14 13 13 13 14 13 12 10 9 8 8 8 8 8 9 10 10 11
28 28 30 28 22 15 9 5 6 9 9 11 15 15 12 10 10 14 19 20 21 23 26 28 29 32 35 37 39 38 36 36 36 36 34 31 30 30 29 27 26 27 27 26 26 28 26 24 22 21 19 17 17 17 18 19 19 19 20 20 21 21 21 19 16 15 14 13 13 14 15 15 15 15 16 16 15 15 14 13 13 14 14 13 12 11 10 9 9 8 8 8 8 9 10 10 10
25 27 29 30 24 17 10 4 2 5 7 9 15 18 14 9 8 10 14 17 22 24 27 29 29 31 33 35 37 36 36 37 37 35 33 31 30 29 28 27 25 27 27 26 27 28 27 25 23 21 20 18 15 16 18 19 21 22 21 21 21 21 19 18 16 15 13 13 14 14 14 14 14 14 14 14 14 13 13 13 13 13 13 12 11 11 10 9 9 8 8 8 9 9 10 10 10
24 28 26 24 20 17 15 9 5 6 8 8 14 19 18 15 10 10 14 18 22 24 27 28 29 31 32 34 34 33 35 36 34 32 31 31 30 29 28 26 24 25 27 27 28 29 28 26 23 22 21 18 15 17 20 20 22 23 22 21 21 20 19 17 16 14 13 13 13 13 13 12 12 12 13 13 13 12 12 12 12 12 12 12 11 11 10 10 9 9 8 9 9 10 10 10 10
19 24 22 20 18 17 17 13 8 9 8 7 12 16 18 19 15 12 15 19 21 23 25 27 29 31 32 32 32 33 35 34 31 31 31 32 31 30 29 26 23 25 27 27 28 29 30 27 24 23 21 18 16 19 21 21 23 24 23 22 21 20 19 17 15 14 13 13 13 12 12 12 12 12 12 12 11 10 10 11 11 12 12 12 11 11 10 10 10 9 9 9 10 10 10 10 10
16 19 22 22 19 18 20 16 10 10 9 7 10 12 14 19 18 13 14 17 19 20 22 25 29 31 32 30 31 34 34 32 31 32 32 32 31 31 31 28 24 25 27 28 29 31 31 28 26 24 21 19 19 19 21 22 23 24 22 21 20 19 18 17 15 14 13 13 12 12 12 12 12 11 10 10 9 9 9 10 11 12 12 12 11 11 11 11 10 10 10 10 11 10 10 9 9
22 22 24 24 20 18 20 20 18 13 8 7 8 8 11 16 18 16 14 15 17 19 20 22 24 27 29 30 31 33 31 30 31 32 31 31 31 32 32 28 25 25 27 28 29 31 31 29 27 24 22 21 21 21 23 22 22 22 22 21 20 19 18 16 15 14 14 14 13 12 12 11 10 9 9 8 8 9 10 10 11 11 11 11 11 11 12 11 11 11 11 11 11 10 9 9 9
25 23 23 24 23 20 16 16 21 19 12 8 8 8 8 10 14 17 18 16 15 17 18 18 19 21 25 29 31 29 28 29 30 30 30 29 31 32 31 29 27 26 27 28 29 31 32 30 28 25 24 23 22 23 23 22 22 22 22 22 21 20 18 16 15 16 15 15 13 12 11 10 9 8 8 8 8 9 10 11 11 11 11 11 12 12 12 12 12 12 12 12 11 10 9 9 9
Wind_Direction
257 260 260 262 256 320 15 48 171 176 175 154 130 123 91 75 79 75 91 87 38 340 349 339 228 189 145 124 111 9 18 26 30 27 42 34 30 27 25 359 256 210 203 203 201 201 198 193 191 190 183 177 180 191 228 352 358 350 353 2 13 20 22 24 22 20 16 11 11 11 12 14 19 23 27 27 23 22 26 32 34 33 39 50 65 83 96 103 106 108 110 114 118 121 123 121 118
255 259 261 262 257 261 323 340 246 197 186 167 129 107 101 86 76 71 66 61 35 347 3 35 210 202 172 174 283 344 348 357 20 23 40 33 27 26 27 37 231 207 204 204 203 207 208 205 203 203 196 189 193 206 231 280 322 328 338 351 9 19 21 24 21 19 15 9 7 7 8 11 16 21 26 27 23 21 23 27 28 29 37 52 67 86 98 103 106 109 112 115 120 124 124 121 120
249 254 256 261 262 254 267 300 265 220 212 188 137 120 113 94 73 67 58 64 48 20 23 48 175 209 197 216 268 291 294 326 349 356 34 29 22 23 21 40 111 201 204 205 206 209 214 215 213 214 208 201 203 214 233 259 292 310 320 334 1 17 21 24 20 17 14 6 3 3 4 9 14 18 24 28 24 21 22 23 22 24 35 52 69 87 98 104 106 111 114 118 121 124 124 124 124
240 246 248 251 261 257 256 265 263 241 225 204 154 140 116 96 76 62 56 77 60 41 37 33 283 237 208 219 244 268 276 297 324 344 29 22 15 17 18 34 71 188 207 207 209 211 216 219 220 221 219 215 214 222 235 253 279 294 303 316 344 13 19 22 19 16 13 4 1 1 0 6 11 14 22 26 25 21 22 21 19 22 33 50 68 83 96 103 107 112 115 119 122 125 126 128 129
232 238 240 240 254 252 242 246 250 248 231 211 170 143 116 101 80 60 48 67 62 41 38 37 319 258 223 214 215 243 264 279 299 321 12 15 8 9 17 29 65 162 215 212 214 215 217 221 224 225 226 224 224 229 237 251 270 283 290 301 325 4 16 20 18 14 10 2 359 358 356 2 7 11 19 26 26 24 24 22 20 24 33 46 63 79 90 98 105 111 116 119 121 125 128 131 133
226 231 235 228 244 248 238 245 241 237 225 193 169 134 106 100 91 64 39 28 51 35 32 35 357 290 268 245 225 238 249 265 287 304 339 3 1 5 16 25 61 149 211 217 221 221 220 223 226 229 230 230 230 233 236 247 262 274 280 286 302 347 8 17 15 12 8 0 357 354 350 356 3 7 15 25 27 27 27 25 23 27 34 42 57 73 85 94 101 108 114 118 122 127 131 135 138
216 221 231 221 243 251 238 240 235 226 194 153 147 127 109 98 101 65 40 21 19 15 20 22 24 11 307 278 254 237 222 242 275 301 334 359 355 3 14 18 57 144 201 218 225 226 225 226 229 232 234 234 234 234 236 242 254 265 271 273 280 317 350 15 11 8 5 359 355 347 345 350 357 2 11 23 28 31 31 30 29 32 35 40 52 65 80 90 97 106 113 119 124 129 135 141 143
212 211 218 214 232 246 235 235 229 219 198 167 156 149 141 124 101 56 32 24 14 5 0 9 35 37 309 256 238 207 198 221 260 333 4 3 348 1 14 13 41 137 201 221 227 230 229 231 233 235 237 237 236 234 234 238 246 257 263 265 264 280 308 9 7 5 3 355 350 340 337 342 350 358 6 18 27 32 35 34 34 36 37 37 46 58 73 86 93 100 109 117 124 129 137 145 153
219 218 222 220 226 235 233 235 226 217 204 193 223 228 179 180 81 31 18 18 7 1 353 4 39 35 335 203 190 182 187 209 225 39 32 352 346 8 13 14 20 26 225 232 234 231 231 234 236 238 240 239 238 235 232 234 241 250 257 259 256 261 272 338 360 1 358 347 341 333 328 334 344 352 1 11 21 29 35 38 38 39 40 38 41 50 65 80 89 94 101 109 117 127 137 148 170
226 226 226 228 229 231 232 235 229 223 214 207 233 249 215 210 22 355 359 7 357 1 345 346 20 61 128 145 166 170 176 183 125 74 53 329 12 22 17 18 12 338 276 257 251 239 233 235 236 238 241 241 240 235 231 231 235 243 251 254 250 252 252 274 351 352 351 337 330 325 319 326 338 347 356 4 14 23 29 34 38 41 42 41 39 41 51 66 80 89 95 103 114 126 140 159 222
227 231 227 230 230 230 232 233 230 227 220 209 220 247 237 255 352 348 344 355 348 355 347 342 354 301 200 191 181 175 175 178 120 97 173 81 41 29 26 25 17 337 295 278 269 253 240 236 233 236 237 239 238 233 230 228 231 238 244 247 242 242 240 240 312 329 334 327 321 316 312 317 331 342 351 357 6 15 22 26 32 37 41 42 38 33 34 42 52 66 74 84 97 108 150 253 281
223 231 228 231 232 233 233 233 233 228 222 213 213 238 248 247 293 334 333 343 348 349 348 348 344 306 265 242 211 186 177 173 139 154 168 77 37 24 29 34 31 322 285 275 271 259 249 241 233 232 232 233 232 228 226 224 228 232 236 238 233 233 232 229 267 299 316 316 313 310 304 309 324 334 343 350 358 9 16 17 20 26 31 34 33 29 26 26 25 23 21 17 11 356 336 321 314
222 227 226 230 233 235 233 232 234 228 228 225 216 235 249 234 251 288 313 324 339 351 335 335 350 319 286 258 216 190 185 167 163 176 137 58 24 17 22 24 14 311 274 266 262 255 249 243 233 229 227 226 225 222 221 222 226 228 229 231 226 226 225 226 255 281 300 309 308 305 300 301 315 327 337 342 347 1 10 10 11 16 19 21 19 17 18 17 14 7 2 358 357 350 343 335 328
222 226 228 232 232 234 235 231 231 227 230 230 223 233 241 231 243 262 294 314 309 326 315 322 353 323 295 263 216 191 184 167 167 172 113 38 14 12 10 5 342 306 264 254 250 246 244 242 235 227 222 220 220 217 217 221 224 224 225 227 224 222 221 223 248 271 286 302 304 302 297 297 308 320 331 334 339 349 359 2 2 7 10 12 9 6 5 5 3 358 353 348 347 343 338 334 328
223 225 229 234 233 232 233 230 228 226 227 226 226 232 241 248 255 263 276 285 291 304 310 316 341 324 298 243 224 194 174 168 170 169 95 17 6 6 1 351 323 286 252 246 246 245 244 241 233 223 216 213 213 212 215 221 222 221 224 227 225 222 219 219 239 260 269 280 291 294 291 290 298 311 322 330 334 340 349 351 350 355 358 358 356 354 350 349 349 342 339 334 328 328 325 324 322
225 227 231 234 233 230 229 225 224 223 220 220 226 234 241 249 256 267 272 277 289 297 305 310 323 318 278 254 230 192 170 181 179 178 60 2 358 0 356 347 323 285 258 252 254 253 249 244 233 222 213 206 205 208 214 218 218 218 222 226 226 225 222 222 234 249 255 260 270 279 282 283 291 307 320 328 332 335 341 342 340 343 344 344 338 335 333 329 330 328 328 325 321 321 322 325 326
228 229 230 232 230 229 228 221 219 217 216 216 221 228 234 247 251 259 274 279 288 293 301 307 310 302 284 269 215 185 185 195 193 199 253 354 350 356 355 352 343 298 269 263 265 260 254 247 233 220 211 204 202 206 213 215 215 216 220 224 225 223 224 228 234 242 250 256 261 268 275 280 288 305 320 326 329 331 331 332 330 332 334 333 328 326 325 324 327 332 332 328 325 323 325 329 331
227 227 228 230 229 229 227 221 216 212 215 216 219 228 231 247 254 263 279 280 284 293 298 303 306 298 292 272 202 184 197 205 205 208 269 344 342 349 351 359 13 309 265 263 263 255 250 243 227 215 211 205 202 206 211 212 213 216 219 223 223 221 224 229 234 241 246 253 259 263 269 277 286 300 318 325 326 327 326 324 320 319 324 322 323 323 320 323 329 337 339 333 328 327 327 329 333
226 225 227 231 229 229 228 222 217 215 221 223 225 234 237 246 255 260 267 275 283 289 292 298 303 296 297 276 220 194 205 209 209 207 285 330 332 337 342 353 23 215 231 238 239 239 241 234 218 211 211 206 205 208 210 210 213 216 218 222 222 221 225 229 235 242 247 254 259 263 267 272 280 295 314 321 321 324 323 319 315 315 321 322 323 323 320 326 333 338 336 331 330 331 331 331 334
227 225 229 231 228 230 229 220 218 223 229 229 231 235 237 247 255 257 256 265 276 274 271 292 301 293 296 280 249 226 215 208 213 217 280 308 308 314 325 325 286 202 211 218 220 227 233 229 214 210 213 209 208 210 211 211 214 217 219 221 222 223 228 231 237 243 249 258 262 265 264 266 274 291 309 316 316 318 320 312 309 315 322 328 324 326 330 328 331 336 331 333 336 332 331 328 330
228 227 229 230 228 231 228 220 222 231 235 232 235 238 236 243 252 257 256 259 271 268 261 279 293 291 292 281 261 238 219 213 219 228 270 280 281 297 318 316 280 213 214 217 217 224 228 224 214 212 216 214 212 213 213 213 214 218 220 222 224 225 230 232 236 242 249 254 258 261 261 263 272 288 306 314 313 314 316 305 300 320 333 342 335 341 340 327 330 334 329 334 335 324 322 320 322
229 229 230 228 231 233 227 227 231 234 239 236 234 239 239 243 248 254 255 254 259 256 262 279 286 287 289 281 266 241 226 222 222 230 248 247 260 284 309 305 266 227 224 217 218 222 223 219 213 213 216 217 217 216 215 214 216 220 221 223 226 227 230 232 232 238 246 251 253 257 258 260 266 283 301 307 306 309 310 290 220 147 114 47 317 339 328 317 324 327 325 330 329 322 321 322 323
230 231 234 232 231 231 227 233 237 236 240 239 237 240 243 245 249 254 253 250 249 250 264 278 282 284 287 283 269 243 230 226 220 223 224 222 239 265 292 283 244 227 223 215 218 217 215 214 211 210 213 217 219 218 216 216 218 221 223 224 227 228 229 230 230 236 245 250 253 255 256 256 261 278 293 299 299 301 289 221 173 155 161 225 254 304 314 309 313 314 321 324 323 322 322 326 326
234 233 237 236 232 230 232 234 237 240 241 240 241 242 244 247 248 252 254 253 254 259 267 273 278 281 284 282 260 233 227 222 211 212 215 216 229 251 275 265 237 224 221 219 222 217 211 209 208 208 212 218 219 218 218 218 220 223 226 227 228 229 230 231 231 237 244 248 251 253 255 257 261 276 289 296 296 283 218 197 175 155 188 248 269 299 312 302 304 310 319 323 323 320 320 326 331
237 234 234 238 233 234 236 233 235 243 244 238 239 243 245 247 246 250 255 256 257 262 267 271 277 278 281 280 251 230 228 221 211 213 214 214 228 252 262 253 235 222 222 223 224 221 214 209 209 210 214 219 219 220 221 221 223 226 229 230 229 228 229 230 231 236 242 245 249 251 253 255 259 274 284 287 289 253 202 203 188 180 216 244 274 296 306 305 306 313 319 323 323 321 325 335 347
238 236 232 232 235 238 238 235 238 244 244 241 244 246 244 244 248 252 254 255 258 263 267 271 274 275 279 272 242 229 224 214 212 214 213 213 227 246 248 244 234 221 221 223 223 222 218 216 218 218 218 220 220 221 224 224 225 227 229 230 229 229 230 230 231 235 240 243 246 248 250 250 255 267 272 268 267 234 210 219 210 211 228 240 268 292 304 310 314 319 325 331 335 337 343 353 3
237 238 233 228 236 241 239 238 241 244 245 245 246 245 242 247 252 251 252 255 257 263 266 268 271 273 274 259 236 228 220 209 209 210 211 213 225 237 238 241 235 224 222 223 224 224 224 226 227 226 223 222 222 223 224 224 223 225 227 228 229 230 231 230 232 234 237 241 243 244 245 244 250 257 259 256 247 234 228 234 235 238 246 251 267 288 303 313 321 327 334 335 346 353 352 2 8
233 236 230 226 233 239 239 238 238 240 243 244 245 245 243 248 251 247 248 255 257 259 263 265 267 269 268 253 235 228 219 211 212 213 210 208 218 231 238 242 233 224 223 224 225 228 232 234 231 228 226 226 226 223 222 221 220 221 223 224 227 229 230 229 230 233 235 238 240 240 241 243 249 250 249 250 244 239 237 241 247 247 248 256 269 292 306 315 322 329 331 327 340 356 359 11 9
229 232 226 228 235 238 238 236 235 236 240 243 242 240 237 243 252 249 246 254 258 258 260 263 264 264 262 251 237 228 220 216 218 217 210 205 217 234 241 239 227 219 223 224 225 228 233 236 233 229 229 230 227 219 216 215 213 215 218 221 226 228 229 228 228 231 234 236 239 240 241 244 248 247 245 250 253 245 239 244 249 247 246 256 270 291 302 308 318 321 321 328 360 7 9 20 8
228 230 226 226 233 235 236 234 233 233 236 238 235 237 236 240 254 256 251 254 257 256 258 260 261 260 256 246 238 232 224 222 221 215 207 206 224 239 239 234 222 220 224 224 226 228 231 235 235 233 233 233 225 217 211 208 209 212 215 218 224 227 227 228 228 231 234 235 238 237 238 241 241 243 247 253 257 245 238 242 245 246 251 259 271 286 295 302 311 310 316 24 45 22 17 13 358
221 222 223 222 225 230 232 232 230 227 230 233 232 238 241 241 249 252 254 257 255 255 257 256 256 256 250 240 237 235 228 226 219 210 207 211 229 237 234 230 223 224 226 224 227 229 230 233 236 236 236 232 223 216 209 208 213 214 217 219 222 226 227 226 227 228 231 232 233 232 231 233 233 236 247 252 250 240 235 237 239 245 253 259 268 275 280 285 284 271 248 39 25 10 1 351 343
211 209 216 217 223 229 229 229 232 229 226 229 229 234 242 244 241 242 250 255 253 254 255 254 253 252 247 238 235 234 227 225 217 208 209 215 228 232 231 228 223 226 226 225 230 233 234 234 235 237 237 233 222 215 214 215 217 217 222 226 226 228 228 226 226 225 228 230 228 227 228 228 229 236 247 249 243 235 232 235 239 243 249 256 259 254 254 256 247 231 214 232 343 344 335 330 331
204 209 215 214 219 227 225 222 229 231 225 226 230 233 240 242 236 237 244 250 254 257 255 255 253 251 247 238 234 231 224 223 217 210 212 217 226 231 230 226 223 225 226 228 234 239 240 238 236 236 237 235 225 219 222 223 222 222 226 232 235 233 230 227 225 225 227 230 228 228 228 224 231 243 248 244 237 232 232 236 239 240 247 253 245 234 236 239 229 225 233 291 320 325 320 320 321
201 209 216 218 218 222 222 213 215 220 218 224 230 233 237 237 233 235 242 250 256 258 257 257 255 252 247 238 233 229 222 221 219 214 215 218 224 230 231 228 226 225 226 231 238 242 243 239 236 235 235 235 230 224 226 225 226 231 233 236 241 239 235 232 230 229 229 229 230 230 226 223 234 243 242 237 232 232 235 236 237 242 248 244 232 227 229 231 234 250 275 300 314 319 313 313 314
201 205 211 218 220 219 219 210 203 206 209 218 224 229 233 232 231 238 245 252 255 256 257 256 252 250 247 240 233 227 220 219 220 217 217 219 223 229 232 232 229 225 227 233 239 244 243 240 238 236 236 235 232 228 226 228 230 237 239 236 241 242 239 237 234 232 229 227 228 226 223 226 233 235 234 231 230 231 234 234 238 243 240 229 225 228 231 233 248 267 285 300 308 311 307 308 310
208 208 210 214 218 221 218 212 206 201 202 212 219 225 229 226 227 242 249 252 253 253 252 250 249 248 246 240 231 225 219 217 219 218 219 221 222 227 232 233 233 228 228 233 238 243 244 244 242 240 240 237 234 229 227 236 239 238 240 237 239 241 239 238 236 233 231 228 224 217 218 225 227 225 225 223 223 224 227 230 234 235 227 222 227 234 239 248 262 275 285 295 299 301 303 305 307
217 214 216 215 217 220 211 207 205 197 201 215 223 227 229 226 227 242 251 250 249 249 247 248 248 245 243 238 229 222 216 216 216 217 220 222 223 227 232 232 233 234 233 236 238 241 241 243 245 243 243 242 238 231 224 235 242 239 239 236 235 237 237 237 235 231 225 219 214 211 216 222 220 218 215 215 215 215 221 228 229 227 224 223 227 234 246 257 267 277 284 289 294 298 301 302 304
215 210 211 209 210 210 201 198 194 194 207 222 226 228 231 229 225 236 249 249 246 246 246 247 245 242 239 233 225 218 215 214 213 216 220 222 225 229 232 230 232 236 237 238 240 242 240 241 246 245 242 241 237 232 225 230 236 237 237 236 235 235 235 237 238 233 221 212 208 209 216 217 217 217 214 213 214 215 224 231 227 224 224 225 228 237 249 258 267 277 285 290 295 299 301 303 304
203 200 201 202 204 204 198 198 196 197 213 224 227 229 231 231 224 230 246 248 245 244 243 242 241 238 234 227 221 216 212 210 211 218 222 222 227 230 230 227 231 236 238 239 240 242 242 244 247 243 239 239 235 230 229 232 235 238 238 237 237 236 235 237 240 234 220 210 202 206 214 212 214 216 214 215 216 221 230 232 227 223 223 225 231 242 250 262 273 280 287 292 296 299 301 303 305
199 199 203 208 206 203 200 198 197 199 211 221 227 230 230 228 220 226 242 244 240 240 237 237 237 232 226 221 219 214 209 209 214 219 222 224 228 228 226 224 230 237 239 240 241 243 245 246 247 245 239 236 233 228 228 234 237 237 235 234 236 238 236 236 238 231 219 208 198 208 216 211 208 209 210 215 217 224 231 231 229 226 225 227 233 244 254 265 275 281 288 294 298 301 302 304 305
205 207 210 214 206 202 202 194 190 195 210 217 217 225 229 223 216 223 236 238 235 235 234 233 233 227 220 218 216 210 206 210 217 220 223 227 226 224 222 223 230 237 241 243 244 248 249 248 248 247 243 231 222 220 221 228 230 228 230 233 235 234 233 232 232 229 223 214 206 211 215 209 205 205 207 213 218 224 227 225 224 223 223 228 235 244 253 262 272 280 289 296 300 302 303 304 306
209 210 209 212 204 200 200 187 182 189 211 216 209 220 231 222 220 225 231 234 232 232 232 230 229 223 219 219 213 206 204 211 218 221 224 225 223 220 219 223 229 235 242 245 247 250 249 250 248 244 240 227 214 216 221 222 222 224 228 232 231 227 229 229 219 216 219 216 213 210 208 207 206 206 209 215 221 221 220 217 216 218 220 226 234 243 254 265 276 284 291 297 300 302 303 305 308
210 209 202 198 191 192 191 184 185 195 212 214 207 217 234 224 221 222 223 230 232 230 231 229 224 219 217 215 207 202 206 215 219 220 221 220 218 218 219 223 227 232 240 243 246 249 248 252 252 246 233 215 212 219 221 220 221 224 228 232 234 233 237 238 220 208 211 212 214 207 203 207 207 210 215 219 221 216 213 213 212 215 219 227 240 253 266 276 282 288 293 297 299 301 304 307 309
207 205 197 195 191 190 190 188 195 207 215 211 206 215 234 233 222 216 217 226 231 229 229 227 221 216 212 207 202 203 210 216 218 218 218 218 217 218 220 224 227 230 236 239 243 249 249 251 255 253 235 219 220 218 215 218 224 227 229 233 239 242 241 238 223 210 210 214 213 205 204 208 209 214 219 222 220 215 212 212 213 218 227 240 255 270 279 283 287 291 295 298 300 302 303 305 306
200 184 182 190 194 196 196 196 203 209 209 209 205 208 226 237 226 212 213 222 228 228 227 225 221 214 209 206 203 206 211 214 215 216 217 217 216 218 222 225 228 230 234 236 239 250 253 251 254 253 243 234 225 212 212 221 228 230 232 234 237 241 241 234 219 211 215 216 210 205 206 208 212 217 221 223 220 217 217 217 221 230 241 256 268 279 284 286 290 294 298 300 300 299 299 300 302
188 168 164 171 180 190 194 199 205 205 209 218 210 204 213 232 222 206 204 216 223 226 225 224 221 216 211 210 209 209 211 213 213 214 216 218 218 220 223 225 228 231 233 233 234 246 253 253 254 252 246 241 224 214 220 228 232 232 231 231 232 235 237 231 221 216 216 215 210 209 209 210 215 218 222 225 222 223 225 227 234 244 255 267 276 284 287 289 293 297 299 297 295 293 293 298 302
179 167 161 161 167 178 186 197 204 202 217 226 216 206 210 227 221 209 209 219 221 218 221 223 220 217 214 213 214 212 212 215 215 215 217 220 222 223 226 228 230 232 233 232 232 240 248 251 254 251 247 243 229 224 231 233 234 231 225 228 231 232 230 221 217 217 217 216 214 214 214 215 217 219 224 227 227 231 233 237 245 253 264 274 281 286 288 291 294 295 294 290 290 292 296 301 304
181 174 166 163 165 171 179 191 200 204 224 226 218 208 211 224 224 215 218 225 223 216 220 224 220 217 216 216 217 216 216 217 217 218 220 222 225 227 229 231 233 235 234 230 230 235 242 246 251 249 244 240 234 233 234 233 235 231 227 229 231 229 221 213 214 217 218 219 219 218 219 221 222 225 228 230 233 236 239 245 252 261 271 278 284 288 288 289 291 290 289 290 293 297 300 303 304
185 183 178 171 167 172 183 187 195 211 224 221 213 207 214 227 225 220 217 219 224 225 225 225 222 220 219 218 219 220 220 219 219 222 225 225 228 232 234 236 237 239 237 231 230 234 238 241 245 246 242 237 238 239 236 235 235 232 228 224 223 222 215 212 215 218 218 221 222 221 222 225 229 230 231 234 237 241 246 253 260 268 275 280 284 285 284 284 287 288 290 293 295 298 301 304 306
186 188 187 183 176 170 188 190 191 211 209 180 199 205 219 232 228 225 221 212 223 229 226 225 225 224 223 222 222 223 224 222 222 226 229 230 234 238 239 239 239 240 239 233 231 235 237 238 238 240 240 239 243 243 239 237 235 230 226 219 215 216 213 214 216 216 221 224 223 222 224 229 235 236 235 237 241 249 255 261 266 271 276 280 281 279 278 282 286 287 288 290 293 298 302 306 309
189 191 191 193 192 181 187 194 193 205 194 167 183 202 221 232 226 222 219 212 217 223 221 220 221 222 223 224 224 225 225 223 224 229 234 236 240 242 241 240 238 238 238 234 233 236 236 235 233 234 240 245 248 247 240 236 229 223 221 217 214 214 214 216 216 218 223 224 222 223 226 232 238 239 238 239 246 255 261 264 267 272 276 276 275 274 277 281 280 279 281 286 292 299 303 306 309
188 191 197 201 198 188 184 192 199 200 191 178 188 203 216 226 223 210 207 209 213 217 216 215 217 220 221 222 224 225 224 225 229 233 238 240 242 243 242 242 239 236 235 233 235 238 237 234 231 231 237 243 246 243 233 228 222 217 217 217 216 217 218 218 218 222 225 223 225 228 232 237 240 239 239 242 250 256 259 262 266 271 272 270 270 272 275 273 271 272 277 285 294 299 302 305 309
183 189 200 203 199 196 189 167 140 184 200 194 196 209 218 226 232 213 205 207 208 213 217 217 218 220 221 222 224 225 225 228 232 235 238 241 241 241 241 242 240 235 233 233 236 240 238 234 231 229 232 237 235 225 219 219 217 216 218 218 218 219 219 220 221 224 225 225 231 237 240 242 241 240 241 244 249 252 256 262 267 267 266 266 269 270 268 265 265 270 276 285 293 296 300 304 309
184 192 195 192 199 210 202 189 168 188 216 209 200 214 221 221 220 204 206 209 204 209 216 217 219 219 221 223 224 224 227 230 232 234 237 239 238 238 239 242 239 233 232 233 236 239 239 235 230 228 231 232 222 212 214 218 217 218 219 217 218 219 219 221 222 222 225 230 237 242 244 244 241 240 239 241 245 251 258 264 266 265 264 267 268 264 261 260 263 269 275 284 289 293 297 301 305
190 194 188 180 190 200 196 196 191 195 217 218 210 221 225 222 215 191 195 204 201 206 212 216 220 222 223 224 225 227 230 231 232 234 236 238 237 237 240 243 237 228 228 231 233 238 239 235 229 227 227 226 217 211 214 218 217 218 217 215 216 216 218 220 220 222 228 234 238 241 242 241 238 236 236 240 247 254 262 266 266 266 266 265 262 258 258 259 263 268 274 282 287 290 293 297 304
190 193 193 192 198 197 195 203 204 198 209 220 218 222 226 223 215 198 196 197 196 201 208 214 222 225 225 225 227 230 232 233 235 237 238 238 238 238 241 243 233 224 226 229 233 238 239 235 230 225 222 221 218 212 213 217 218 217 216 215 215 215 218 219 219 225 231 233 235 237 237 234 232 234 237 242 251 258 264 267 267 267 264 260 257 256 258 259 263 269 276 282 285 285 290 297 305
188 191 194 194 199 200 202 209 211 211 213 214 215 225 231 222 211 207 204 196 198 202 207 216 224 227 227 226 229 231 233 236 237 238 238 236 237 239 240 239 227 219 223 227 231 237 237 234 230 223 218 218 217 213 213 216 217 217 217 216 216 216 218 219 221 226 228 228 230 230 229 229 229 234 239 247 257 262 265 267 267 266 261 258 257 257 258 260 264 271 277 281 281 283 290 298 304
190 194 195 193 194 194 198 206 208 214 222 218 219 235 236 211 200 208 210 204 206 207 210 220 227 229 229 227 229 232 234 236 237 235 234 233 236 240 239 233 222 217 220 224 229 233 235 234 228 221 216 215 215 213 213 214 215 217 218 216 215 216 217 219 221 224 224 224 224 224 226 229 232 239 245 254 262 265 267 268 267 266 262 260 260 258 260 263 267 273 276 278 280 283 289 296 303